Olive Branch, MS

2:37 AM CST on February 25, 2017 (GMT -0600)
Olive Branch

Weather History for KOLV - April, 2014

Change the Weather History Date:

Sunday, April 6, 2014

  Actual Average (KMEM) Record (KMEM)
Temperature  
Mean Temperature 48 °F -  
Max Temperature 57 °F 67 °F 87 °F (1960)
Min Temperature 39 °F 46 °F 32 °F (1966)
Degree Days  
Heating Degree Days 17    
Moisture  
Dew Point 41 °F    
Average Humidity 82    
Maximum Humidity 100    
Minimum Humidity 44    
Precipitation  
Precipitation 0.05 in - - ()
Sea Level Pressure  
Sea Level Pressure 29.95 in    
Wind  
Wind Speed 4 mph (NE)    
Max Wind Speed 12 mph    
Max Gust Speed -    
Visibility 9 miles    
Events Rain    
Averages and records for this station are not official NWS values.
T = Trace of Precipitation, MM = Missing Value Source: NWS Daily Summary

Daily Weather History Graph

Daily Weather History Graph

Search for Another Location

Airport or City:

Trip Planner

Search our weather history database for the weather conditions in past years. The results will help you decide how hot, cold, wet, or windy it might be!

Date:

Astronomy

Apr. 06, 2014 Rise Set
Actual Time 6:39 AM CDT 7:24 PM CDT
Civil Twilight 6:13 AM CDT 7:50 PM CDT
Nautical Twilight 5:43 AM CDT 8:20 PM CDT
Astronomical Twilight 5:12 AM CDT 8:51 PM CDT
Moon 11:47 AM CDT (4/6) 1:13 AM CDT (4/6)
Length of Visible Light 13h 36m
Length of Day
12h 45m
Waxing Crescent, 44% of the Moon is Illuminated
Apr 6
Waxing Crescent
Apr 7
First Quarter
Apr 15
Full
Apr 22
Last Quarter
Apr 29
New

Hourly Weather History & Observations

Time (CDT) Temp. Windchill Dew Point Humidity Pressure Visibility Wind Dir Wind Speed Gust Speed Precip Events Conditions
12:15 AM 46.4 °F 45.2 °F 37.4 °F 71% 30.09 in 10.0 mi NNE 3.5 mph - 0.00 in   Clear
12:35 AM 44.6 °F - 37.4 °F 76% 30.09 in 10.0 mi Calm Calm - 0.00 in   Clear
12:55 AM 46.4 °F - 37.4 °F 71% 30.09 in 10.0 mi Calm Calm - 0.00 in   Clear
1:15 AM 42.8 °F - 39.2 °F 87% 30.08 in 10.0 mi Calm Calm - 0.00 in   Clear
1:35 AM 44.6 °F - 39.2 °F 81% 30.07 in 10.0 mi Calm Calm - 0.00 in   Clear
1:55 AM 42.8 °F 40.1 °F 39.2 °F 87% 30.06 in 9.0 mi NNE 4.6 mph - 0.00 in   Clear
2:15 AM 42.8 °F 39.3 °F 39.2 °F 87% 30.05 in 10.0 mi NNE 5.8 mph - 0.00 in   Clear
2:35 AM 42.8 °F 39.3 °F 39.2 °F 87% 30.04 in 10.0 mi NE 5.8 mph - 0.00 in   Clear
2:55 AM 44.6 °F 40.7 °F 39.2 °F 81% 30.04 in 10.0 mi NE 6.9 mph - 0.00 in   Clear
3:15 AM 44.6 °F 40.2 °F 39.2 °F 81% 30.04 in 10.0 mi NE 8.1 mph - 0.00 in   Clear
3:35 AM 44.6 °F - 37.4 °F 76% 30.06 in 9.0 mi Calm Calm - 0.00 in   Clear
3:55 AM 44.6 °F 40.2 °F 37.4 °F 76% 30.03 in 10.0 mi NE 8.1 mph - 0.00 in   Clear
4:15 AM 42.8 °F 40.1 °F 37.4 °F 81% 30.03 in 10.0 mi NE 4.6 mph - 0.00 in   Clear
4:35 AM 42.8 °F - 37.4 °F 81% 30.04 in 10.0 mi Calm Calm - 0.00 in   Clear
4:55 AM 41.0 °F 38.0 °F 37.4 °F 87% 30.05 in 10.0 mi NNE 4.6 mph - 0.00 in   Clear
5:15 AM 39.2 °F 35.9 °F 37.4 °F 93% 30.05 in 10.0 mi NNE 4.6 mph - 0.00 in   Clear
5:35 AM 41.0 °F 37.1 °F 37.4 °F 87% 30.04 in 10.0 mi NNE 5.8 mph - 0.00 in   Clear
5:55 AM 41.0 °F 37.1 °F 37.4 °F 87% 30.04 in 9.0 mi NNE 5.8 mph - 0.00 in   Clear
6:15 AM 41.0 °F 37.1 °F 37.4 °F 87% 30.04 in 10.0 mi NE 5.8 mph - 0.00 in   Clear
6:35 AM 41.0 °F 36.4 °F 37.4 °F 87% 30.05 in 10.0 mi NNE 6.9 mph - 0.00 in   Clear
6:50 AM 41.0 °F 36.4 °F 37.4 °F 87% 30.05 in 10.0 mi NNE 6.9 mph - N/A   Partly Cloudy
7:55 AM 44.6 °F 39.7 °F 37.4 °F 76% 30.01 in 10.0 mi ENE 9.2 mph - N/A   Partly Cloudy
8:50 AM 48.2 °F - 37.4 °F 66% 30.03 in 10.0 mi East 5.8 mph - N/A   Partly Cloudy
9:50 AM 53.6 °F - 35.6 °F 51% 30.03 in 10.0 mi East 11.5 mph - N/A   Scattered Clouds
10:50 AM 55.4 °F - 35.6 °F 47% 30.02 in 10.0 mi East 6.9 mph - N/A   Scattered Clouds
11:50 AM 57.2 °F - 35.6 °F 44% 29.96 in 10.0 mi East 10.4 mph - N/A   Mostly Cloudy
12:50 PM 57.2 °F - 35.6 °F 44% 29.98 in 10.0 mi East 10.4 mph - N/A   Mostly Cloudy
1:50 PM 57.2 °F - 35.6 °F 44% 29.98 in 10.0 mi Calm Calm - N/A   Overcast
2:50 PM 57.2 °F - 37.4 °F 48% 29.91 in 10.0 mi Calm Calm - N/A   Overcast
3:50 PM 57.2 °F - 37.4 °F 48% 29.87 in 10.0 mi East 5.8 mph - N/A   Overcast
4:50 PM 51.8 °F - 48.2 °F 88% 29.88 in 6.0 mi Calm Calm - N/A Rain Light Rain
5:50 PM 48.2 °F - 48.2 °F 100% 29.89 in 4.0 mi Calm Calm - N/A Rain Light Rain
6:50 PM 48.2 °F - 48.2 °F 100% 29.88 in 3.0 mi Calm Calm - N/A Rain Light Rain
7:50 PM 46.4 °F 42.9 °F 46.4 °F 100% 29.83 in 3.0 mi East 6.9 mph - N/A Rain Light Rain
8:55 PM 46.4 °F 41.1 °F 46.4 °F 100% 29.78 in 9.0 mi NE 11.5 mph - 0.05 in   Overcast
9:15 PM 46.4 °F 41.5 °F 46.4 °F 100% 29.79 in 10.0 mi NE 10.4 mph - 0.00 in   Overcast
9:35 PM 46.4 °F 41.9 °F 46.4 °F 100% 29.76 in 10.0 mi NE 9.2 mph - 0.00 in   Overcast
9:55 PM 48.2 °F - 48.2 °F 100% 29.77 in 8.0 mi NE 9.2 mph - 0.00 in   Overcast
10:15 PM 48.2 °F - 48.2 °F 100% 29.75 in 7.0 mi North 8.1 mph - 0.00 in   Overcast
10:35 PM 48.2 °F - 48.2 °F 100% 29.77 in 7.0 mi NNE 6.9 mph - 0.00 in   Overcast
10:55 PM 48.2 °F - 48.2 °F 100% 29.75 in 7.0 mi NNE 8.1 mph - 0.00 in   Overcast
11:15 PM 48.2 °F - 48.2 °F 100% 29.73 in 5.0 mi NE 10.4 mph - 0.00 in   Overcast
11:35 PM 48.2 °F - 48.2 °F 100% 29.74 in 4.0 mi North 8.1 mph - 0.00 in   Overcast
11:55 PM 48.2 °F - 48.2 °F 100% 29.71 in 5.0 mi NNE 9.2 mph - 0.00 in   Overcast